This demonstration page uses our WeatherBlox Daily Observations layout. Learn more.

Left ArrowRight Arrow

Hourly Observations for April 23, 2019

Temp ( °F °C ) Dew Point ( °F °C ) Humidity (%) Winds ( mph kmh ) Pressure ( in mb ) Visibility ( mi km ) Precip ( " mm )
12:53 am 00:53 Clear 56 13.3 54 12.2 93 93 Calm 30.12 1020 10 16 0.00 0.00
1:53 am 01:53 Clear 56 13.3 54 12.2 93 93 Calm 30.12 1020 10 16 0.00 0.00
2:53 am 02:53 Clear 53 11.7 53 11.7 100 100 Calm 30.10 1019 10 16 0.00 0.00
4:53 am 04:53 Clear 54 12.2 53 11.7 97 97 Calm 30.09 1019 10 16 0.00 0.00
5:53 am 05:53 Clear 51 10.6 51 10.6 100 100 Calm 30.10 1019 10 16 0.00 0.00
6:53 am 06:53 Clear 50 10 50 10 100 100 Calm 30.10 1019 10 16 0.00 0.00
7:53 am 07:53 Sunny 52 11.1 52 11.1 100 100 Calm 30.12 1020 10 16 0.00 0.00
8:53 am 08:53 Sunny 59 15 56 13.3 90 90 Calm 30.13 1020 10 16 0.00 0.00
9:53 am 09:53 Sunny 67 19.4 57 13.9 71 71 Calm 30.13 1020 10 16 0.00 0.00
10:53 am 10:53 Sunny 74 23.3 54 12.2 50 50 NW 3 6 30.13 1020 10 16 0.00 0.00
11:53 am 11:53 Sunny 77 25 54 12.2 45 45 VRB 6 9 30.13 1020 10 16 0.00 0.00
12:53 pm 12:53 Hazy 78 25.6 53 11.7 42 42 WNW 10 17 30.11 1020 6 10 0.00 0.00
1:53 pm 13:53 Sunny 81 27.2 52 11.1 37 37 WSW 8 13 30.09 1019 10 16 0.00 0.00
3:53 pm 15:53 Sunny 82 27.8 49 9.4 32 32 W 10 17 30.04 1017 10 16 0.00 0.00
4:53 pm 16:53 Sunny 81 27.2 50 10 34 34 SW 10 17 30.03 1017 10 16 0.00 0.00
5:53 pm 17:53 Sunny 81 27.2 51 10.6 35 35 SW 8 13 30.02 1017 10 16 0.00 0.00
6:53 pm 18:53 Sunny 80 26.7 51 10.6 37 37 WSW 6 9 30.01 1016 10 16 0.00 0.00
7:53 pm 19:53 Sunny 77 25 53 11.7 43 43 VRB 3 6 30.02 1017 10 16 0.00 0.00
8:53 pm 20:53 Clear 74 23.3 54 12.2 50 50 Calm 30.02 1017 10 16 0.00 0.00
9:53 pm 21:53 Clear 71 21.7 55 12.8 57 57 SSW 5 7 30.04 1017 10 16 0.00 0.00
10:53 pm 22:53 Clear 69 20.6 56 13.3 63 63 SSW 3 6 30.03 1017 10 16 0.00 0.00
11:53 pm 23:53 Clear 64 17.8 57 13.9 78 78 Calm 30.03 1017 10 16 0.00 0.00

Powered by AerisWeather